Year,Month,Day,Hour,Minute,Value (Times are PST for temperature in C)
2010,04,10,00,00,2.20
2010,04,10,00,01,2.20
2010,04,10,00,02,2.10
2010,04,10,00,03,2.10
2010,04,10,00,04,2.10
2010,04,10,00,05,2.10
2010,04,10,00,06,2.00
2010,04,10,00,07,2.00
2010,04,10,00,08,2.00
2010,04,10,00,09,2.00
2010,04,10,00,10,2.00
2010,04,10,00,11,2.00
2010,04,10,00,12,1.90
2010,04,10,00,13,1.90
2010,04,10,00,14,1.90
2010,04,10,00,15,1.90
2010,04,10,00,16,1.90
2010,04,10,00,17,1.90
2010,04,10,00,18,1.90
2010,04,10,00,19,1.80
2010,04,10,00,20,1.80
2010,04,10,00,21,1.80
2010,04,10,00,22,1.80
2010,04,10,00,23,1.80
2010,04,10,00,24,1.80
2010,04,10,00,25,1.80
2010,04,10,00,26,1.80
2010,04,10,00,27,1.70
2010,04,10,00,28,1.70
2010,04,10,00,29,1.70
2010,04,10,00,30,1.70
2010,04,10,00,31,1.70
2010,04,10,00,32,1.70
2010,04,10,00,33,1.70
2010,04,10,00,34,1.70
2010,04,10,00,35,1.70
2010,04,10,00,36,1.70
2010,04,10,00,37,1.70
2010,04,10,00,38,1.70
2010,04,10,00,39,1.70
2010,04,10,00,40,1.70
2010,04,10,00,41,1.60
2010,04,10,00,42,1.60
2010,04,10,00,43,1.60
2010,04,10,00,44,1.60
2010,04,10,00,45,1.60
2010,04,10,00,46,1.60
2010,04,10,00,47,1.60
2010,04,10,00,48,1.60
2010,04,10,00,49,1.60
2010,04,10,00,50,1.60
2010,04,10,00,51,1.60
2010,04,10,00,52,1.60
2010,04,10,00,53,1.60
2010,04,10,00,54,1.60
2010,04,10,00,55,1.50
2010,04,10,00,56,1.50
2010,04,10,00,57,1.50
2010,04,10,00,58,1.50
2010,04,10,00,59,1.50
2010,04,10,01,00,1.50
2010,04,10,01,01,1.50
2010,04,10,01,02,1.50
2010,04,10,01,03,1.50
2010,04,10,01,04,1.50
2010,04,10,01,05,1.60
2010,04,10,01,06,1.60
2010,04,10,01,07,1.60
2010,04,10,01,08,1.60
2010,04,10,01,09,1.60
2010,04,10,01,10,1.60
2010,04,10,01,11,1.60
2010,04,10,01,12,1.60
2010,04,10,01,13,1.60
2010,04,10,01,14,1.50
2010,04,10,01,15,1.50
2010,04,10,01,16,1.50
2010,04,10,01,17,1.50
2010,04,10,01,18,1.40
2010,04,10,01,19,1.40
2010,04,10,01,20,1.40
2010,04,10,01,21,1.30
2010,04,10,01,22,1.30
2010,04,10,01,23,1.30
2010,04,10,01,24,1.30
2010,04,10,01,25,1.30
2010,04,10,01,26,1.30
2010,04,10,01,27,1.30
2010,04,10,01,28,1.30
2010,04,10,01,29,1.30
2010,04,10,01,30,1.30
2010,04,10,01,31,1.30
2010,04,10,01,32,1.30
2010,04,10,01,33,1.30
2010,04,10,01,34,1.30
2010,04,10,01,35,1.30
2010,04,10,01,36,1.30
2010,04,10,01,37,1.30
2010,04,10,01,38,1.30
2010,04,10,01,39,1.30
2010,04,10,01,40,1.30
2010,04,10,01,41,1.30
2010,04,10,01,42,1.30
2010,04,10,01,43,1.30
2010,04,10,01,44,1.30
2010,04,10,01,45,1.40
2010,04,10,01,46,1.40
2010,04,10,01,47,1.40
2010,04,10,01,48,1.40
2010,04,10,01,49,1.40
2010,04,10,01,50,1.40
2010,04,10,01,51,1.40
2010,04,10,01,52,1.40
2010,04,10,01,53,1.40
2010,04,10,01,54,1.40
2010,04,10,01,55,1.40
2010,04,10,01,56,1.30
2010,04,10,01,57,1.30
2010,04,10,01,58,1.30
2010,04,10,01,59,1.30
2010,04,10,02,00,1.30
2010,04,10,02,01,1.20
2010,04,10,02,02,1.20
2010,04,10,02,03,1.20
2010,04,10,02,04,1.20
2010,04,10,02,05,1.10
2010,04,10,02,06,1.10
2010,04,10,02,07,1.10
2010,04,10,02,08,1.00
2010,04,10,02,09,1.00
2010,04,10,02,10,1.00
2010,04,10,02,11,1.00
2010,04,10,02,12,1.00
2010,04,10,02,13,0.90
2010,04,10,02,14,0.90
2010,04,10,02,15,0.90
2010,04,10,02,16,0.90
2010,04,10,02,17,0.80
2010,04,10,02,18,0.80
2010,04,10,02,19,0.80
2010,04,10,02,20,0.80
2010,04,10,02,21,0.80
2010,04,10,02,22,0.80
2010,04,10,02,23,0.80
2010,04,10,02,24,0.80
2010,04,10,02,25,0.80
2010,04,10,02,26,0.80
2010,04,10,02,27,0.80
2010,04,10,02,28,0.80
2010,04,10,02,29,0.80
2010,04,10,02,30,0.80
2010,04,10,02,31,0.80
2010,04,10,02,32,0.90
2010,04,10,02,33,0.90
2010,04,10,02,34,0.90
2010,04,10,02,35,1.00
2010,04,10,02,36,1.10
2010,04,10,02,37,1.10
2010,04,10,02,38,1.20
2010,04,10,02,39,1.20
2010,04,10,02,40,1.20
2010,04,10,02,41,1.30
2010,04,10,02,42,1.30
2010,04,10,02,43,1.30
2010,04,10,02,44,1.30
2010,04,10,02,45,1.30
2010,04,10,02,46,1.30
2010,04,10,02,47,1.30
2010,04,10,02,48,1.30
2010,04,10,02,49,1.30
2010,04,10,02,50,1.30
2010,04,10,02,51,1.30
2010,04,10,02,52,1.30
2010,04,10,02,53,1.30
2010,04,10,02,54,1.30
2010,04,10,02,55,1.40
2010,04,10,02,56,1.40
2010,04,10,02,57,1.40
2010,04,10,02,58,1.40
2010,04,10,02,59,1.40
2010,04,10,03,00,1.40
2010,04,10,03,01,1.50
2010,04,10,03,02,1.50
2010,04,10,03,03,1.50
2010,04,10,03,04,1.50
2010,04,10,03,05,1.50
2010,04,10,03,06,1.50
2010,04,10,03,07,1.50
2010,04,10,03,08,1.50
2010,04,10,03,09,1.50
2010,04,10,03,10,1.60
2010,04,10,03,11,1.60
2010,04,10,03,12,1.60
2010,04,10,03,13,1.60
2010,04,10,03,14,1.60
2010,04,10,03,15,1.60
2010,04,10,03,16,1.50
2010,04,10,03,17,1.50
2010,04,10,03,18,1.50
2010,04,10,03,19,1.50
2010,04,10,03,20,1.40
2010,04,10,03,21,1.40
2010,04,10,03,22,1.40
2010,04,10,03,23,1.30
2010,04,10,03,24,1.30
2010,04,10,03,25,1.30
2010,04,10,03,26,1.30
2010,04,10,03,27,1.30
2010,04,10,03,28,1.30
2010,04,10,03,29,1.30
2010,04,10,03,30,1.30
2010,04,10,03,31,1.30
2010,04,10,03,32,1.30
2010,04,10,03,33,1.30
2010,04,10,03,34,1.30
2010,04,10,12,04,8.20
2010,04,10,12,05,8.20
2010,04,10,12,06,8.30
2010,04,10,12,07,8.30
2010,04,10,12,08,8.40
2010,04,10,12,09,8.50
2010,04,10,12,10,8.50
2010,04,10,12,11,8.60
2010,04,10,12,12,8.70
2010,04,10,12,13,8.70
2010,04,10,12,14,8.70
2010,04,10,12,15,8.80
2010,04,10,12,16,8.80
2010,04,10,12,17,8.80
2010,04,10,12,18,8.80
2010,04,10,12,19,8.80
2010,04,10,12,20,8.80
2010,04,10,12,21,8.90
2010,04,10,12,22,8.90
2010,04,10,12,23,9.00
2010,04,10,12,24,9.00
2010,04,10,12,25,9.00
2010,04,10,12,26,9.00
2010,04,10,12,27,8.90
2010,04,10,12,28,8.90
2010,04,10,12,29,8.90
2010,04,10,12,30,9.00
2010,04,10,12,31,8.90
2010,04,10,12,32,8.90
2010,04,10,12,33,9.00
2010,04,10,12,34,9.00
2010,04,10,12,35,9.10
2010,04,10,12,36,9.10
2010,04,10,12,37,9.20
2010,04,10,12,38,9.20
2010,04,10,12,39,9.30
2010,04,10,12,40,9.30
2010,04,10,12,41,9.20
2010,04,10,12,42,9.20
2010,04,10,12,43,9.30
2010,04,10,12,44,9.30
2010,04,10,12,45,9.40
2010,04,10,12,46,9.40
2010,04,10,12,47,9.50
2010,04,10,12,48,9.50
2010,04,10,12,49,9.50
2010,04,10,12,50,9.40
2010,04,10,12,51,9.40
2010,04,10,12,52,9.50
2010,04,10,12,53,9.50
2010,04,10,12,54,9.50
2010,04,10,12,55,9.60
2010,04,10,12,56,9.50
2010,04,10,12,57,9.40
2010,04,10,12,58,9.40
2010,04,10,12,59,9.50
2010,04,10,13,00,9.50
2010,04,10,13,01,9.40
2010,04,10,13,02,9.50
2010,04,10,13,03,9.50
2010,04,10,13,04,9.60
2010,04,10,13,05,9.60
2010,04,10,13,06,9.70
2010,04,10,13,07,9.70
2010,04,10,13,08,9.70
2010,04,10,13,09,9.80
2010,04,10,13,10,9.80
2010,04,10,13,11,9.90
2010,04,10,13,12,9.90
2010,04,10,13,13,9.90
2010,04,10,13,14,9.90
2010,04,10,13,15,9.90
2010,04,10,13,16,9.90
2010,04,10,13,17,9.90
2010,04,10,13,18,9.80
2010,04,10,13,19,9.80
2010,04,10,13,20,9.90
2010,04,10,13,21,9.90
2010,04,10,13,22,9.90
2010,04,10,13,23,9.90
2010,04,10,13,24,9.90
2010,04,10,13,25,10.10
2010,04,10,13,26,10.10
2010,04,10,13,27,10.10
2010,04,10,13,28,10.10
2010,04,10,13,29,10.10
2010,04,10,13,30,10.10
2010,04,10,13,31,10.10
2010,04,10,13,32,10.10
2010,04,10,13,33,10.20
2010,04,10,13,34,10.20
2010,04,10,13,35,10.20
2010,04,10,13,36,10.20
2010,04,10,13,37,10.20
2010,04,10,13,38,10.20
2010,04,10,13,39,10.10
2010,04,10,13,40,10.10
2010,04,10,13,41,10.10
2010,04,10,13,42,10.10
2010,04,10,13,43,10.10
2010,04,10,13,44,10.10
2010,04,10,13,45,10.20
2010,04,10,13,46,10.30
2010,04,10,13,47,10.30
2010,04,10,13,48,10.40
2010,04,10,13,49,10.40
2010,04,10,13,50,10.40
2010,04,10,13,51,10.40
2010,04,10,13,52,10.40
2010,04,10,13,53,10.40
2010,04,10,13,54,10.40
2010,04,10,13,55,10.50
2010,04,10,13,56,10.60
2010,04,10,13,57,10.60
2010,04,10,13,58,10.70
2010,04,10,13,59,10.80
2010,04,10,14,00,10.80
2010,04,10,14,01,10.80
2010,04,10,14,02,10.70
2010,04,10,14,03,10.70
2010,04,10,14,04,10.80
2010,04,10,14,05,10.80
2010,04,10,14,06,10.90
2010,04,10,14,07,10.90
2010,04,10,14,08,10.90
2010,04,10,14,09,10.80
2010,04,10,14,10,10.80
2010,04,10,14,11,10.80
2010,04,10,14,12,10.80
2010,04,10,14,13,10.80
2010,04,10,14,14,10.90
2010,04,10,14,15,10.90
2010,04,10,14,16,10.90
2010,04,10,14,17,11.10
2010,04,10,14,18,11.10
2010,04,10,14,19,11.00
2010,04,10,14,20,11.10
2010,04,10,14,21,11.10
2010,04,10,14,22,11.10
2010,04,10,14,23,11.10
2010,04,10,14,24,11.00
2010,04,10,14,25,10.90
2010,04,10,14,26,10.90
2010,04,10,14,27,10.90
2010,04,10,14,28,10.90
2010,04,10,14,29,10.90
2010,04,10,14,30,10.90
2010,04,10,14,31,10.90
2010,04,10,14,32,10.90
2010,04,10,14,33,10.90
2010,04,10,14,34,10.90
2010,04,10,14,35,10.90
2010,04,10,14,36,10.90
2010,04,10,14,37,10.90
2010,04,10,14,38,11.00
2010,04,10,14,39,11.10
2010,04,10,14,40,11.10
2010,04,10,14,41,11.10
2010,04,10,14,42,11.10
2010,04,10,14,43,11.10
2010,04,10,14,44,11.20
2010,04,10,14,45,11.20
2010,04,10,14,46,11.20
2010,04,10,14,47,11.20
2010,04,10,14,48,11.20
2010,04,10,14,49,11.30
2010,04,10,14,50,11.30
2010,04,10,14,51,11.30
2010,04,10,14,52,11.40
2010,04,10,14,53,11.40
2010,04,10,14,54,11.40
2010,04,10,14,55,11.40
2010,04,10,14,56,11.40
2010,04,10,14,57,11.40
2010,04,10,14,58,11.30
2010,04,10,14,59,11.40
2010,04,10,15,00,11.40
2010,04,10,15,01,11.40
2010,04,10,15,02,11.40
2010,04,10,15,03,11.40
2010,04,10,15,04,11.30
2010,04,10,15,05,11.30
2010,04,10,15,06,11.30
2010,04,10,15,07,11.40
2010,04,10,15,08,11.40
2010,04,10,15,09,11.40
2010,04,10,15,10,11.60
2010,04,10,15,11,11.60
2010,04,10,15,12,11.70
2010,04,10,15,13,11.70
2010,04,10,15,14,11.70
2010,04,10,15,15,11.70
2010,04,10,15,16,11.60
2010,04,10,15,17,11.60
2010,04,10,15,18,11.40
2010,04,10,15,19,11.40
2010,04,10,15,20,11.40
2010,04,10,15,21,11.40
2010,04,10,15,22,11.40
2010,04,10,15,23,11.40
2010,04,10,15,24,11.50
2010,04,10,15,25,11.60
2010,04,10,15,26,11.60
2010,04,10,15,27,11.60
2010,04,10,15,28,11.60
2010,04,10,15,29,11.60
2010,04,10,15,30,11.60
2010,04,10,15,31,11.60
2010,04,10,15,32,11.70
2010,04,10,15,33,11.70
2010,04,10,15,34,11.70
2010,04,10,15,35,11.70
2010,04,10,15,36,11.70
2010,04,10,15,37,11.70
2010,04,10,15,38,11.70
2010,04,10,15,39,11.70
2010,04,10,15,40,11.80
2010,04,10,15,41,11.90
2010,04,10,15,42,12.00
2010,04,10,15,43,12.00
2010,04,10,15,44,12.00
2010,04,10,15,45,12.00
2010,04,10,15,46,12.00
2010,04,10,15,47,12.00
2010,04,10,15,48,12.00
2010,04,10,15,49,12.00
2010,04,10,15,50,12.00
2010,04,10,15,51,12.00
2010,04,10,15,52,12.10
2010,04,10,15,53,12.10
2010,04,10,15,54,12.20
2010,04,10,15,55,12.10
2010,04,10,15,56,12.10
2010,04,10,15,57,12.00
2010,04,10,15,58,12.00
2010,04,10,15,59,12.00
2010,04,10,16,00,12.00
2010,04,10,16,01,12.00
2010,04,10,16,02,12.00
2010,04,10,16,03,11.90
2010,04,10,16,04,11.80
2010,04,10,16,05,11.90
2010,04,10,16,06,11.90
2010,04,10,16,07,11.90
2010,04,10,16,08,11.90
2010,04,10,16,09,11.90
2010,04,10,16,10,11.90
2010,04,10,16,11,11.90
2010,04,10,16,12,11.80
2010,04,10,16,13,11.80
2010,04,10,16,14,11.80
2010,04,10,16,15,11.80
2010,04,10,16,16,11.80
2010,04,10,16,17,11.80
2010,04,10,16,18,11.80
2010,04,10,16,19,11.80
2010,04,10,16,20,11.80
2010,04,10,16,21,11.80
2010,04,10,16,22,11.80
2010,04,10,16,23,11.80
2010,04,10,16,24,11.80
2010,04,10,16,25,11.80
2010,04,10,16,26,11.80
2010,04,10,16,27,11.80
2010,04,10,16,28,11.80
2010,04,10,16,29,11.80
2010,04,10,16,30,11.80
2010,04,10,16,31,11.80
2010,04,10,16,32,11.90
2010,04,10,16,33,11.90
2010,04,10,16,34,12.00
2010,04,10,16,35,12.00
2010,04,10,16,36,12.10
2010,04,10,16,37,12.10
2010,04,10,16,38,12.10
2010,04,10,16,39,12.20
2010,04,10,16,40,12.10
2010,04,10,16,41,12.10
2010,04,10,16,42,12.10
2010,04,10,16,43,12.10
2010,04,10,16,44,12.00
2010,04,10,16,45,12.00
2010,04,10,16,46,12.00
2010,04,10,16,47,12.10
2010,04,10,16,48,12.10
2010,04,10,16,49,12.20
2010,04,10,16,50,12.20
2010,04,10,16,51,12.20
2010,04,10,16,52,12.20
2010,04,10,16,53,12.10
2010,04,10,16,54,12.20
2010,04,10,16,55,12.20
2010,04,10,16,56,12.20
2010,04,10,16,57,12.20
2010,04,10,16,58,12.20
2010,04,10,16,59,12.10
2010,04,10,17,00,12.10
2010,04,10,17,01,12.10
2010,04,10,17,02,12.10
2010,04,10,17,03,12.10
2010,04,10,17,04,12.20
2010,04,10,17,05,12.20
2010,04,10,17,06,12.30
2010,04,10,17,07,12.30
2010,04,10,17,08,12.30
2010,04,10,17,09,12.30
2010,04,10,17,10,12.20
2010,04,10,17,11,12.20
2010,04,10,17,12,12.20
2010,04,10,17,13,12.10
2010,04,10,17,14,12.10
2010,04,10,17,15,12.10
2010,04,10,17,16,12.10
2010,04,10,17,17,12.20
2010,04,10,17,18,12.20
2010,04,10,17,19,12.20
2010,04,10,17,20,12.20
2010,04,10,17,21,12.20
2010,04,10,17,22,12.20
2010,04,10,17,23,12.10
2010,04,10,17,24,12.20
2010,04,10,17,25,12.20
2010,04,10,17,26,12.10
2010,04,10,17,27,12.10
2010,04,10,17,28,12.20
2010,04,10,17,29,12.20
2010,04,10,17,30,12.10
2010,04,10,17,31,12.10
2010,04,10,17,32,12.10
2010,04,10,17,33,12.10
2010,04,10,17,34,12.10
2010,04,10,17,35,12.10
2010,04,10,17,36,12.20
2010,04,10,17,37,12.20
2010,04,10,17,38,12.20
2010,04,10,17,39,12.20
2010,04,10,17,40,12.20
2010,04,10,17,41,12.20
2010,04,10,17,42,12.20
2010,04,10,17,43,12.10
2010,04,10,17,44,12.10
2010,04,10,17,45,12.10
2010,04,10,17,46,12.00
2010,04,10,17,47,12.00
2010,04,10,17,48,12.10
2010,04,10,17,49,12.10
2010,04,10,17,50,12.20
2010,04,10,17,51,12.20
2010,04,10,17,52,12.20
2010,04,10,17,53,12.20
2010,04,10,17,54,12.20
2010,04,10,17,55,12.10
2010,04,10,17,56,12.10
2010,04,10,17,57,12.10
2010,04,10,17,58,12.10
2010,04,10,17,59,12.00
2010,04,10,18,00,12.00
2010,04,10,18,01,12.00
2010,04,10,18,02,12.00
2010,04,10,18,03,12.10
2010,04,10,18,04,12.00
2010,04,10,18,05,12.00
2010,04,10,18,06,12.00
2010,04,10,18,07,12.10
2010,04,10,18,08,12.10
2010,04,10,18,09,12.10
2010,04,10,18,10,12.10
2010,04,10,18,11,12.10
2010,04,10,18,12,12.10
2010,04,10,18,13,12.10
2010,04,10,18,14,12.10
2010,04,10,18,15,12.10
2010,04,10,18,16,12.10
2010,04,10,18,17,12.00
2010,04,10,18,18,12.00
2010,04,10,18,19,12.00
2010,04,10,18,20,12.00
2010,04,10,18,21,12.00
2010,04,10,18,22,12.00
2010,04,10,18,23,12.00
2010,04,10,18,24,12.00
2010,04,10,18,25,12.00
2010,04,10,18,26,12.00
2010,04,10,18,27,12.00
2010,04,10,18,28,12.00
2010,04,10,18,29,11.90
2010,04,10,18,30,11.90
2010,04,10,18,31,11.90
2010,04,10,18,32,11.80
2010,04,10,18,33,11.80
2010,04,10,18,34,11.80
2010,04,10,18,35,11.80
2010,04,10,18,36,11.80
2010,04,10,18,37,11.80
2010,04,10,18,38,11.80
2010,04,10,18,39,11.80
2010,04,10,18,40,11.80
2010,04,10,18,41,11.80
2010,04,10,18,42,11.80
2010,04,10,18,43,11.80
2010,04,10,18,44,11.80
2010,04,10,18,45,11.80
2010,04,10,18,46,11.80
2010,04,10,18,47,11.80
2010,04,10,18,48,11.80
2010,04,10,18,49,11.80
2010,04,10,18,50,11.80
2010,04,10,18,51,11.80
2010,04,10,18,52,11.70
2010,04,10,18,53,11.70
2010,04,10,18,54,11.70
2010,04,10,18,55,11.60
2010,04,10,18,56,11.60
2010,04,10,18,57,11.60
2010,04,10,18,58,11.60
2010,04,10,18,59,11.60
2010,04,10,19,00,11.60
2010,04,10,19,01,11.60
2010,04,10,19,02,11.60
2010,04,10,19,03,11.60
2010,04,10,19,04,11.50
2010,04,10,19,05,11.40
2010,04,10,19,06,11.40
2010,04,10,19,07,11.40
2010,04,10,19,08,11.40
2010,04,10,19,09,11.40
2010,04,10,19,10,11.40
2010,04,10,19,11,11.40
2010,04,10,19,12,11.30
2010,04,10,19,13,11.30
2010,04,10,19,14,11.30
2010,04,10,19,15,11.30
2010,04,10,19,16,11.20
2010,04,10,19,17,11.20
2010,04,10,19,18,11.20
2010,04,10,19,19,11.20
2010,04,10,19,20,11.20
2010,04,10,19,21,11.10
2010,04,10,19,22,11.10
2010,04,10,19,23,11.10
2010,04,10,19,24,11.10
2010,04,10,19,25,11.10
2010,04,10,19,26,11.10
2010,04,10,19,27,11.00
2010,04,10,19,28,10.90
2010,04,10,19,29,10.90
2010,04,10,19,30,10.90
2010,04,10,19,31,10.90
2010,04,10,19,32,10.90
2010,04,10,19,33,10.90
2010,04,10,19,34,10.90
2010,04,10,19,35,10.90
2010,04,10,19,36,10.90
2010,04,10,19,37,10.90
2010,04,10,19,38,10.80
2010,04,10,19,39,10.80
2010,04,10,19,40,10.80
2010,04,10,19,41,10.80
2010,04,10,19,42,10.80
2010,04,10,19,43,10.70
2010,04,10,19,44,10.70
2010,04,10,19,45,10.70
2010,04,10,19,46,10.70
2010,04,10,19,47,10.70
2010,04,10,19,48,10.60
2010,04,10,19,49,10.60
2010,04,10,19,50,10.60
2010,04,10,19,51,10.60
2010,04,10,19,52,10.60
2010,04,10,19,53,10.50
2010,04,10,19,54,10.40
2010,04,10,19,55,10.40
2010,04,10,19,56,10.40
2010,04,10,19,57,10.40
2010,04,10,19,58,10.40
2010,04,10,19,59,10.40
2010,04,10,20,00,10.40
2010,04,10,20,01,10.40
2010,04,10,20,02,10.40
2010,04,10,20,03,10.40
2010,04,10,20,04,10.30
2010,04,10,20,05,10.30
2010,04,10,20,06,10.30
2010,04,10,20,07,10.30
2010,04,10,20,08,10.30
2010,04,10,20,09,10.30
2010,04,10,20,10,10.30
2010,04,10,20,11,10.20
2010,04,10,20,12,10.20
2010,04,10,20,13,10.20
2010,04,10,20,14,10.20
2010,04,10,20,15,10.20
2010,04,10,20,16,10.10
2010,04,10,20,17,10.10
2010,04,10,20,18,10.10
2010,04,10,20,19,10.10
2010,04,10,20,20,10.10
2010,04,10,20,21,10.10
2010,04,10,20,22,10.10
2010,04,10,20,23,10.00
2010,04,10,20,24,9.90
2010,04,10,20,25,9.90
2010,04,10,20,26,9.90
2010,04,10,20,27,9.90
2010,04,10,20,28,9.90
2010,04,10,20,29,9.90
2010,04,10,20,30,9.80
2010,04,10,20,31,9.80
2010,04,10,20,32,9.80
2010,04,10,20,33,9.80
2010,04,10,20,34,9.80
2010,04,10,20,35,9.80
2010,04,10,20,36,9.80
2010,04,10,20,37,9.80
2010,04,10,20,38,9.80
2010,04,10,20,39,9.70
2010,04,10,20,40,9.70
2010,04,10,20,41,9.70
2010,04,10,20,42,9.70
2010,04,10,20,43,9.70
2010,04,10,20,44,9.70
2010,04,10,20,45,9.70
2010,04,10,20,46,9.70
2010,04,10,20,47,9.70
2010,04,10,20,48,9.70
2010,04,10,20,49,9.70
2010,04,10,20,50,9.70
2010,04,10,20,51,9.70
2010,04,10,20,52,9.60
2010,04,10,20,53,9.60
2010,04,10,20,54,9.60
2010,04,10,20,55,9.60
2010,04,10,20,56,9.60
2010,04,10,20,57,9.50
2010,04,10,20,58,9.50
2010,04,10,20,59,9.50
2010,04,10,21,00,9.50
2010,04,10,21,01,9.50
2010,04,10,21,02,9.50
2010,04,10,21,03,9.50
2010,04,10,21,04,9.50
2010,04,10,21,05,9.50
2010,04,10,21,06,9.50
2010,04,10,21,07,9.40
2010,04,10,21,08,9.40
2010,04,10,21,09,9.40
2010,04,10,21,10,9.40
2010,04,10,21,11,9.40
2010,04,10,21,12,9.40
2010,04,10,21,13,9.30
2010,04,10,21,14,9.30
2010,04,10,21,15,9.30
2010,04,10,21,16,9.30
2010,04,10,21,17,9.40
2010,04,10,21,18,9.40
2010,04,10,21,19,9.40
2010,04,10,21,20,9.40
2010,04,10,21,21,9.40
2010,04,10,21,22,9.40
2010,04,10,21,23,9.40
2010,04,10,21,24,9.40
2010,04,10,21,25,9.40
2010,04,10,21,26,9.40
2010,04,10,21,27,9.40
2010,04,10,21,28,9.40
2010,04,10,21,29,9.40
2010,04,10,21,30,9.40
2010,04,10,21,31,9.40
2010,04,10,21,32,9.40
2010,04,10,21,33,9.40
2010,04,10,21,34,9.40
2010,04,10,21,35,9.40
2010,04,10,21,36,9.40
2010,04,10,21,37,9.40
2010,04,10,21,38,9.40
2010,04,10,21,39,9.40
2010,04,10,21,40,9.30
2010,04,10,21,41,9.30
2010,04,10,21,42,9.30
2010,04,10,21,43,9.30
2010,04,10,21,44,9.30
2010,04,10,21,45,9.30
2010,04,10,21,46,9.30
2010,04,10,21,47,9.30
2010,04,10,21,48,9.30
2010,04,10,21,49,9.30
2010,04,10,21,50,9.30
2010,04,10,21,51,9.30
2010,04,10,21,52,9.30
2010,04,10,21,53,9.30
2010,04,10,21,54,9.30
2010,04,10,21,55,9.30
2010,04,10,21,56,9.30
2010,04,10,21,57,9.30
2010,04,10,21,58,9.30
2010,04,10,21,59,9.30
2010,04,10,22,00,9.30
2010,04,10,22,01,9.30
2010,04,10,22,02,9.30
2010,04,10,22,03,9.30
2010,04,10,22,04,9.30
2010,04,10,22,05,9.30
2010,04,10,22,06,9.30
2010,04,10,22,07,9.30
2010,04,10,22,08,9.30
2010,04,10,22,09,9.30
2010,04,10,22,10,9.30
2010,04,10,22,11,9.30
2010,04,10,22,12,9.30
2010,04,10,22,13,9.30
2010,04,10,22,14,9.30
2010,04,10,22,15,9.30
2010,04,10,22,16,9.30
2010,04,10,22,17,9.30
2010,04,10,22,18,9.30
2010,04,10,22,19,9.20
2010,04,10,22,20,9.20
2010,04,10,22,21,9.20
2010,04,10,22,22,9.20
2010,04,10,22,23,9.20
2010,04,10,22,24,9.20
2010,04,10,22,25,9.20
2010,04,10,22,26,9.20
2010,04,10,22,27,9.20
2010,04,10,22,28,9.20
2010,04,10,22,29,9.20
2010,04,10,22,30,9.20
2010,04,10,22,31,9.30
2010,04,10,22,32,9.30
2010,04,10,22,33,9.30
2010,04,10,22,34,9.30
2010,04,10,22,35,9.30
2010,04,10,22,36,9.30
2010,04,10,22,37,9.30
2010,04,10,22,38,9.30
2010,04,10,22,39,9.30
2010,04,10,22,40,9.30
2010,04,10,22,41,9.30
2010,04,10,22,42,9.30
2010,04,10,22,43,9.30
2010,04,10,22,44,9.30
2010,04,10,22,45,9.30
2010,04,10,22,46,9.30
2010,04,10,22,47,9.30
2010,04,10,22,48,9.30
2010,04,10,22,49,9.30
2010,04,10,22,50,9.30
2010,04,10,22,51,9.30
2010,04,10,22,52,9.30
2010,04,10,22,53,9.30
2010,04,10,22,54,9.30
2010,04,10,22,55,9.30
2010,04,10,22,56,9.30
2010,04,10,22,57,9.30
2010,04,10,22,58,9.30
2010,04,10,22,59,9.30
2010,04,10,23,00,9.30
2010,04,10,23,01,9.30
2010,04,10,23,02,9.30
2010,04,10,23,03,9.30
2010,04,10,23,04,9.40
2010,04,10,23,05,9.40
2010,04,10,23,06,9.40
2010,04,10,23,07,9.40
2010,04,10,23,08,9.40
2010,04,10,23,09,9.40
2010,04,10,23,10,9.40
2010,04,10,23,11,9.40
2010,04,10,23,12,9.40
2010,04,10,23,13,9.40
2010,04,10,23,14,9.50
2010,04,10,23,15,9.50
2010,04,10,23,16,9.50
2010,04,10,23,17,9.50
2010,04,10,23,18,9.50
2010,04,10,23,19,9.50
2010,04,10,23,20,9.50
2010,04,10,23,21,9.50
2010,04,10,23,22,9.50
2010,04,10,23,23,9.50
2010,04,10,23,24,9.50
2010,04,10,23,25,9.50
2010,04,10,23,26,9.50
2010,04,10,23,27,9.50
2010,04,10,23,28,9.50
2010,04,10,23,29,9.50
2010,04,10,23,30,9.50
2010,04,10,23,31,9.50
2010,04,10,23,32,9.60
2010,04,10,23,33,9.50
2010,04,10,23,34,9.60
2010,04,10,23,35,9.50
2010,04,10,23,36,9.60
2010,04,10,23,37,9.60
2010,04,10,23,38,9.60
2010,04,10,23,39,9.60
2010,04,10,23,40,9.50
2010,04,10,23,41,9.50
2010,04,10,23,42,9.50
2010,04,10,23,43,9.50
2010,04,10,23,44,9.50
2010,04,10,23,45,9.50
2010,04,10,23,46,9.50
2010,04,10,23,47,9.50
2010,04,10,23,48,9.50
2010,04,10,23,49,9.50
2010,04,10,23,50,9.50
2010,04,10,23,51,9.50
2010,04,10,23,52,9.40
2010,04,10,23,53,9.50
2010,04,10,23,54,9.50
2010,04,10,23,55,9.50
2010,04,10,23,56,9.50
2010,04,10,23,57,9.50
2010,04,10,23,58,9.50
2010,04,10,23,59,9.50
